East Lindsay
DateTemperatureDew Point
09/02 - 05:15 PM85.4°55.2°
09/02 - 05:00 PM85.6°55.0°
09/02 - 04:45 PM85.7°54.7°
09/02 - 04:30 PM86.9°55.6°
09/02 - 04:15 PM86.8°56.3°
09/02 - 04:00 PM86.1°56.3°
09/02 - 03:45 PM86.4°55.6°
09/02 - 03:30 PM87.1°55.4°
09/02 - 03:15 PM87.7°56.0°
09/02 - 03:00 PM86.9°56.9°
09/02 - 02:45 PM86.1°56.6°
09/02 - 02:30 PM86.6°57.1°
09/02 - 02:15 PM84.7°57.6°
09/02 - 02:00 PM84.0°56.5°
09/02 - 01:45 PM83.8°56.6°
09/02 - 01:30 PM82.8°56.6°
09/02 - 01:15 PM82.5°57.0°
09/02 - 01:00 PM80.8°56.4°
09/02 - 12:45 PM80.0°56.0°
09/02 - 12:30 PM78.5°55.2°
09/02 - 12:15 PM78.3°55.9°
09/02 - 12:00 PM78.1°56.2°
09/02 - 11:45 AM77.3°55.9°
09/02 - 11:30 AM76.2°55.6°
09/02 - 11:15 AM75.6°55.8°
09/02 - 11:00 AM74.5°55.8°
09/02 - 10:45 AM73.5°55.6°
09/02 - 10:30 AM73.1°55.3°
09/02 - 10:15 AM72.4°55.4°
09/02 - 10:00 AM71.5°55.4°
09/02 - 09:45 AM70.0°55.2°
09/02 - 09:30 AM69.0°54.8°
09/02 - 09:15 AM68.5°54.7°
09/02 - 09:00 AM68.3°54.8°
09/02 - 08:45 AM67.5°55.2°
09/02 - 08:30 AM65.4°54.6°
09/02 - 08:15 AM63.9°54.3°
09/02 - 08:00 AM62.3°54.1°
09/02 - 07:45 AM61.6°54.1°
09/02 - 07:30 AM59.2°54.5°
09/02 - 07:15 AM56.5°55.6°
09/02 - 07:00 AM54.2°54.2°
09/02 - 06:45 AM53.0°53.0°
09/02 - 06:30 AM52.4°52.4°
09/02 - 06:15 AM52.1°52.0°
09/02 - 06:00 AM52.1°52.0°
09/02 - 05:45 AM52.4°52.1°
09/02 - 05:30 AM52.7°52.4°
09/02 - 05:15 AM53.0°52.8°
09/02 - 05:00 AM53.2°52.9°
09/02 - 04:45 AM53.2°53.0°
09/02 - 04:30 AM53.1°52.9°
09/02 - 04:15 AM53.3°53.1°
09/02 - 04:00 AM53.3°53.0°
09/02 - 03:45 AM53.3°53.0°
09/02 - 03:30 AM53.2°52.7°
09/02 - 03:15 AM53.3°52.7°
09/02 - 03:00 AM53.4°52.7°
09/02 - 02:45 AM53.4°52.6°
09/02 - 02:30 AM53.6°52.7°
09/02 - 02:15 AM53.8°52.8°
09/02 - 02:00 AM54.0°52.9°
09/02 - 01:45 AM54.3°53.1°
09/02 - 01:30 AM54.8°53.6°
09/02 - 01:15 AM55.4°54.1°
09/02 - 01:00 AM55.7°53.9°
09/02 - 12:45 AM56.1°54.0°
09/02 - 12:30 AM56.2°53.8°
09/02 - 12:15 AM57.0°54.2°
09/02 - 12:00 AM57.9°54.4°
09/01 - 11:45 PM58.9°54.1°
09/01 - 11:30 PM60.0°53.4°
09/01 - 11:15 PM61.4°53.2°
09/01 - 11:00 PM62.3°52.9°
09/01 - 10:45 PM61.6°53.5°
09/01 - 10:30 PM60.1°55.2°
09/01 - 10:15 PM59.4°56.5°
09/01 - 10:00 PM59.9°56.6°
09/01 - 09:45 PM60.4°56.6°
09/01 - 09:30 PM61.1°56.8°
09/01 - 09:15 PM61.8°56.4°
09/01 - 09:00 PM62.5°56.4°
09/01 - 08:45 PM63.6°56.5°
09/01 - 08:30 PM64.9°55.9°
09/01 - 08:15 PM65.8°54.4°
09/01 - 08:00 PM67.0°54.4°
09/01 - 07:45 PM68.2°54.5°
09/01 - 07:30 PM69.9°55.1°
09/01 - 07:15 PM71.7°54.3°
09/01 - 07:00 PM74.2°54.0°
09/01 - 06:45 PM77.7°55.9°
09/01 - 06:30 PM81.4°56.5°
09/01 - 06:15 PM84.7°54.2°
09/01 - 06:00 PM86.7°54.0°
09/01 - 05:45 PM88.7°50.5°
09/01 - 05:30 PM88.9°50.3°
09/01 - 05:15 PM89.5°50.5°
09/01 - 05:00 PM87.7°50.3°
09/01 - 04:45 PM87.6°50.5°
09/01 - 04:30 PM87.3°50.8°
09/01 - 04:15 PM87.2°51.7°
09/01 - 04:00 PM87.7°51.7°
09/01 - 03:45 PM88.9°52.4°
09/01 - 03:30 PM89.1°54.0°
09/01 - 03:15 PM88.5°53.9°
09/01 - 03:00 PM89.6°54.2°
09/01 - 02:45 PM87.5°55.2°
09/01 - 02:30 PM87.0°55.3°
09/01 - 02:15 PM85.7°56.0°
09/01 - 02:00 PM85.9°57.1°
09/01 - 01:45 PM85.0°56.7°
09/01 - 01:30 PM83.4°58.1°
09/01 - 01:15 PM82.9°58.0°
09/01 - 01:00 PM81.9°57.7°
09/01 - 12:45 PM80.6°57.5°
09/01 - 12:30 PM79.3°58.1°
09/01 - 12:15 PM79.0°58.0°
09/01 - 12:00 PM79.0°57.8°
09/01 - 11:45 AM77.5°57.5°
09/01 - 11:30 AM76.8°58.1°
09/01 - 11:15 AM75.5°58.4°
09/01 - 11:00 AM75.1°58.6°
09/01 - 10:45 AM73.7°58.8°
09/01 - 10:30 AM72.6°58.4°
09/01 - 10:15 AM71.1°58.3°
09/01 - 10:00 AM70.5°58.1°
09/01 - 09:45 AM70.0°57.9°
09/01 - 09:30 AM68.7°57.6°
09/01 - 09:15 AM68.5°57.3°
09/01 - 09:00 AM68.0°57.5°
09/01 - 08:45 AM65.9°56.9°
09/01 - 08:30 AM64.8°56.8°
09/01 - 08:15 AM63.8°56.9°
09/01 - 08:00 AM62.4°56.7°
09/01 - 07:45 AM61.1°56.8°
09/01 - 07:30 AM59.4°57.7°
09/01 - 07:15 AM57.5°57.3°
09/01 - 07:00 AM56.1°56.0°
09/01 - 06:45 AM55.2°54.8°
09/01 - 06:30 AM54.7°54.1°
09/01 - 06:15 AM54.7°54.0°
09/01 - 06:00 AM54.7°53.8°
09/01 - 05:45 AM55.3°54.2°
09/01 - 05:30 AM55.7°54.6°
09/01 - 05:15 AM55.9°54.6°
09/01 - 05:00 AM56.2°54.8°
09/01 - 04:45 AM56.5°55.0°
09/01 - 04:30 AM56.5°55.1°
09/01 - 04:15 AM56.6°55.0°
09/01 - 04:00 AM56.7°54.8°
09/01 - 03:45 AM57.4°55.3°
09/01 - 03:30 AM58.3°55.6°
09/01 - 03:15 AM58.8°55.5°
09/01 - 03:00 AM58.8°55.1°
09/01 - 02:45 AM59.4°55.4°
09/01 - 02:30 AM59.8°55.1°
09/01 - 02:15 AM60.2°55.0°
09/01 - 02:00 AM60.5°54.5°
09/01 - 01:45 AM60.3°54.4°
09/01 - 01:30 AM60.6°54.5°
09/01 - 01:15 AM60.6°53.8°
09/01 - 01:00 AM61.2°54.1°
09/01 - 12:45 AM61.7°53.4°
09/01 - 12:30 AM61.9°52.8°
09/01 - 12:15 AM62.5°53.2°
09/01 - 12:00 AM63.6°52.5°
08/31 - 11:45 PM64.5°51.7°
08/31 - 11:30 PM65.0°50.3°
08/31 - 11:15 PM65.9°50.1°
08/31 - 11:00 PM66.8°48.9°
08/31 - 10:45 PM67.4°47.3°
08/31 - 10:30 PM67.8°45.7°
08/31 - 10:15 PM68.1°44.8°
08/31 - 10:00 PM68.5°45.0°
08/31 - 09:45 PM69.1°43.5°
08/31 - 09:30 PM69.1°44.5°
08/31 - 09:15 PM68.7°47.3°
08/31 - 09:00 PM70.0°50.0°
08/31 - 08:45 PM71.4°49.2°
08/31 - 08:30 PM72.8°48.1°
08/31 - 08:15 PM74.2°48.6°
08/31 - 08:00 PM75.4°48.9°
08/31 - 07:45 PM74.4°53.0°
08/31 - 07:30 PM73.5°65.8°
08/31 - 07:15 PM75.4°66.4°
08/31 - 07:00 PM78.7°66.1°
08/31 - 06:45 PM83.7°65.6°
08/31 - 06:30 PM88.9°62.1°
08/31 - 06:15 PM93.2°59.7°